| time (UTC) | temp C | wind direction | speed KPH | gust KPH | rain 1hr cm | rain 24hr cm | rain mn cm | humidity % | barometer mb |
| 20260505190535 | 11 | 317 | 0.0 | 6.4 | 0.00 | 0.00 | 0.00 | 63 | 1013.0 |
| 20260505190045 | 11 | 324 | 0.0 | 12.9 | 0.00 | 0.00 | 0.00 | 63 | 1012.9 |
| 20260505185535 | 11 | 326 | 3.2 | 12.9 | 0.00 | 0.00 | 0.00 | 62 | 1012.8 |
| 20260505185035 | 11 | 56 | 3.2 | 12.9 | 0.00 | 0.00 | 0.00 | 62 | 1012.8 |
| 20260505184545 | 11 | 0 | 0.0 | 9.7 | 0.00 | 0.00 | 0.00 | 64 | 1012.7 |
| 20260505184039 | 11 | 13 | 1.6 | 12.9 | 0.00 | 0.00 | 0.00 | 64 | 1012.7 |
| 20260505183538 | 11 | 24 | 3.2 | 12.9 | 0.00 | 0.00 | 0.00 | 63 | 1012.7 |
| 20260505183056 | 11 | 26 | 3.2 | 12.9 | 0.00 | 0.00 | 0.00 | 63 | 1012.8 |
| 20260505182534 | 11 | 343 | 3.2 | 16.1 | 0.00 | 0.00 | 0.00 | 63 | 1012.7 |
| 20260505182037 | 11 | 0 | 3.2 | 16.1 | 0.00 | 0.00 | 0.00 | 63 | 1012.7 |
| 20260505181543 | 11 | 85 | 3.2 | 14.5 | 0.00 | 0.00 | 0.00 | 62 | 1012.8 |
| 20260505181035 | 12 | 20 | 3.2 | 11.3 | 0.00 | 0.00 | 0.00 | 63 | 1012.8 |
| 20260505180534 | 12 | 9 | 1.6 | 14.5 | 0.00 | 0.00 | 0.00 | 63 | 1012.8 |
| 20260505180053 | 12 | 47 | 3.2 | 14.5 | 0.00 | 0.00 | 0.00 | 63 | 1012.7 |
| 20260505175534 | 12 | 63 | 4.8 | 16.1 | 0.00 | 0.00 | 0.00 | 62 | 1012.8 |
| 20260505175034 | 12 | 0 | 4.8 | 16.1 | 0.00 | 0.00 | 0.00 | 61 | 1012.8 |
| 20260505174550 | 13 | 30 | 4.8 | 11.3 | 0.00 | 0.00 | 0.00 | 59 | 1012.9 |
| 20260505174036 | 13 | 30 | 3.2 | 11.3 | 0.00 | 0.00 | 0.00 | 60 | 1012.9 |
| 20260505173534 | 13 | 343 | 1.6 | 12.9 | 0.00 | 0.00 | 0.00 | 60 | 1012.9 |
| 20260505173049 | 13 | 51 | 1.6 | 12.9 | 0.00 | 0.00 | 0.00 | 59 | 1012.9 |
| 20260505172534 | 13 | 48 | 3.2 | 14.5 | 0.00 | 0.00 | 0.00 | 58 | 1012.9 |
| 20260505172034 | 13 | 203 | 3.2 | 14.5 | 0.00 | 0.00 | 0.00 | 57 | 1012.9 |
| 20260505171550 | 13 | 9 | 4.8 | 14.5 | 0.00 | 0.00 | 0.00 | 57 | 1012.9 |
| 20260505171035 | 13 | 29 | 4.8 | 14.5 | 0.00 | 0.00 | 0.00 | 58 | 1013.0 |
| 20260505170534 | 13 | 34 | 3.2 | 14.5 | 0.00 | 0.00 | 0.00 | 57 | 1012.9 |
| 20260505170048 | 13 | 28 | 3.2 | 14.5 | 0.00 | 0.00 | 0.00 | 57 | 1012.9 |
| 20260505165534 | 13 | 79 | 1.6 | 11.3 | 0.00 | 0.00 | 0.00 | 60 | 1012.9 |
| 20260505165035 | 13 | 317 | 3.2 | 12.9 | 0.00 | 0.00 | 0.00 | 57 | 1012.8 |
| 20260505164558 | 13 | 46 | 3.2 | 12.9 | 0.00 | 0.00 | 0.00 | 57 | 1012.8 |
| 20260505164035 | 13 | 19 | 3.2 | 9.7 | 0.00 | 0.00 | 0.00 | 56 | 1012.9 |
| 20260505163534 | 13 | 10 | 3.2 | 9.7 | 0.00 | 0.00 | 0.00 | 56 | 1012.8 |
| 20260505163051 | 13 | 37 | 3.2 | 14.5 | 0.00 | 0.00 | 0.00 | 57 | 1012.8 |
| 20260505162536 | 13 | 64 | 4.8 | 14.5 | 0.00 | 0.00 | 0.00 | 57 | 1012.8 |
| 20260505162034 | 13 | 50 | 3.2 | 16.1 | 0.00 | 0.00 | 0.00 | 59 | 1012.7 |
| 20260505161549 | 13 | 331 | 3.2 | 16.1 | 0.00 | 0.00 | 0.00 | 59 | 1012.8 |
| 20260505161033 | 13 | 173 | 6.4 | 19.3 | 0.00 | 0.00 | 0.00 | 57 | 1012.9 |
| 20260505160535 | 13 | 0 | 4.8 | 19.3 | 0.00 | 0.00 | 0.00 | 58 | 1012.8 |
| 20260505153106 | 15 | 318 | 4.8 | 17.7 | 0.00 | 0.00 | 0.00 | 59 | 1013.0 |
| 20260505152535 | 15 | 0 | 4.8 | 17.7 | 0.00 | 0.00 | 0.00 | 60 | 1013.0 |
| 20260505152033 | 15 | 49 | 4.8 | 19.3 | 0.00 | 0.00 | 0.00 | 58 | 1013.0 |
| 20260505151557 | 15 | 57 | 4.8 | 19.3 | 0.00 | 0.00 | 0.00 | 58 | 1012.9 |
| 20260505151034 | 15 | 352 | 3.2 | 22.5 | 0.00 | 0.00 | 0.00 | 58 | 1013.0 |
| 20260505150534 | 15 | 65 | 4.8 | 22.5 | 0.00 | 0.00 | 0.00 | 56 | 1013.1 |
| 20260505140536 | 14 | 264 | 3.2 | 12.9 | 0.00 | 0.00 | 0.00 | 55 | 1013.3 |
| 20260505125036 | 17 | 5 | 0.0 | 9.7 | 0.00 | 0.00 | 0.00 | 55 | 1013.4 |
| 20260505124550 | 16 | 294 | 1.6 | 9.7 | 0.00 | 0.00 | 0.00 | 53 | 1013.3 |
| 20260505124034 | 16 | 312 | 1.6 | 9.7 | 0.00 | 0.00 | 0.00 | 54 | 1013.5 |
| 20260505123535 | 16 | 0 | 1.6 | 8.0 | 0.00 | 0.00 | 0.00 | 54 | 1013.3 |
| 20260505123102 | 15 | 64 | 3.2 | 8.0 | 0.00 | 0.00 | 0.00 | 54 | 1013.5 |
| 20260505122537 | 16 | 26 | 1.6 | 8.0 | 0.00 | 0.00 | 0.00 | 55 | 1013.4 |
| 20260505122037 | 15 | 311 | 1.6 | 9.7 | 0.00 | 0.00 | 0.00 | 55 | 1013.4 |
| 20260505121547 | 15 | 118 | 1.6 | 9.7 | 0.00 | 0.00 | 0.00 | 54 | 1013.6 |
| 20260505121034 | 16 | 16 | 3.2 | 8.0 | 0.00 | 0.00 | 0.00 | 52 | 1013.4 |
| 20260505120534 | 16 | 22 | 1.6 | 12.9 | 0.00 | 0.00 | 0.00 | 53 | 1013.5 |
| 20260505120046 | 15 | 18 | 3.2 | 14.5 | 0.00 | 0.00 | 0.00 | 55 | 1013.3 |
| 20260505115534 | 15 | 244 | 1.6 | 17.7 | 0.00 | 0.00 | 0.00 | 54 | 1013.6 |
| 20260505115036 | 16 | 180 | 3.2 | 17.7 | 0.00 | 0.00 | 0.00 | 54 | 1013.7 |
| 20260505114549 | 16 | 234 | 4.8 | 14.5 | 0.00 | 0.00 | 0.00 | 57 | 1013.7 |
| 20260505114035 | 15 | 226 | 1.6 | 14.5 | 0.00 | 0.00 | 0.00 | 54 | 1013.5 |
| 20260505113534 | 16 | 49 | 3.2 | 14.5 | 0.00 | 0.00 | 0.00 | 56 | 1013.7 |
| 20260505113042 | 15 | 277 | 1.6 | 12.9 | 0.00 | 0.00 | 0.00 | 55 | 1013.7 |
| 20260505112534 | 15 | 0 | 1.6 | 12.9 | 0.00 | 0.00 | 0.00 | 56 | 1013.7 |
| 20260505112034 | 15 | 11 | 3.2 | 9.7 | 0.00 | 0.00 | 0.00 | 59 | 1013.6 |
| 20260505111552 | 14 | 340 | 3.2 | 14.5 | 0.00 | 0.00 | 0.00 | 57 | 1013.8 |
| 20260505111034 | 15 | 263 | 4.8 | 14.5 | 0.00 | 0.00 | 0.00 | 56 | 1013.7 |
| 20260505110535 | 15 | 13 | 0.0 | 16.1 | 0.00 | 0.00 | 0.00 | 55 | 1013.8 |
| 20260505102034 | 16 | 140 | 3.2 | 12.9 | 0.00 | 0.00 | 0.00 | 58 | 1014.0 |
| 20260505101545 | 16 | 350 | 1.6 | 12.9 | 0.00 | 0.00 | 0.00 | 57 | 1014.0 |
| 20260505101037 | 15 | 352 | 3.2 | 12.9 | 0.00 | 0.00 | 0.00 | 58 | 1013.8 |
| 20260505100538 | 15 | 0 | 1.6 | 12.9 | 0.00 | 0.00 | 0.00 | 58 | 1013.9 |
| 20260505100051 | 15 | 177 | 3.2 | 12.9 | 0.00 | 0.00 | 0.00 | 61 | 1013.9 |
| 20260505095534 | 15 | 352 | 0.0 | 9.7 | 0.00 | 0.00 | 0.00 | 58 | 1013.9 |
| 20260505095118 | 15 | 15 | 1.6 | 16.1 | 0.00 | 0.00 | 0.00 | 58 | 1014.0 |
| 20260505094544 | 15 | 284 | 1.6 | 16.1 | 0.00 | 0.00 | 0.00 | 62 | 1014.0 |
| 20260505094037 | 14 | 335 | 3.2 | 12.9 | 0.00 | 0.00 | 0.00 | 61 | 1014.0 |
| 20260505093538 | 14 | 39 | 3.2 | 12.9 | 0.00 | 0.00 | 0.00 | 63 | 1014.1 |
| 20260505093048 | 13 | 316 | 1.6 | 6.4 | 0.00 | 0.00 | 0.00 | 62 | 1013.9 |
| 20260505092535 | 13 | 53 | 1.6 | 4.8 | 0.00 | 0.00 | 0.00 | 63 | 1014.0 |
| 20260505092037 | 13 | 184 | 1.6 | 6.4 | 0.00 | 0.00 | 0.00 | 66 | 1014.0 |
| 20260505091557 | 13 | 0 | 1.6 | 6.4 | 0.00 | 0.00 | 0.00 | 65 | 1014.0 |
| 20260505091037 | 12 | 57 | 0.0 | 9.7 | 0.00 | 0.00 | 0.00 | 67 | 1014.1 |
| 20260505090538 | 12 | 0 | 1.6 | 9.7 | 0.00 | 0.00 | 0.00 | 64 | 1014.1 |
| 20260505090054 | 12 | 46 | 1.6 | 9.7 | 0.00 | 0.00 | 0.00 | 66 | 1014.1 |
| 20260505085538 | 12 | 44 | 1.6 | 9.7 | 0.00 | 0.00 | 0.00 | 66 | 1014.1 |
| 20260505085037 | 12 | 123 | 1.6 | 9.7 | 0.00 | 0.00 | 0.00 | 66 | 1014.1 |
| 20260505084551 | 12 | 104 | 3.2 | 9.7 | 0.00 | 0.00 | 0.00 | 69 | 1014.0 |
| 20260505084037 | 11 | 111 | 3.2 | 9.7 | 0.00 | 0.00 | 0.00 | 69 | 1013.9 |
| 20260505083534 | 11 | 15 | 1.6 | 6.4 | 0.00 | 0.00 | 0.00 | 70 | 1013.9 |
| 20260505083054 | 11 | 13 | 1.6 | 9.7 | 0.00 | 0.00 | 0.00 | 70 | 1013.9 |
| 20260505082534 | 11 | 292 | 1.6 | 9.7 | 0.00 | 0.00 | 0.00 | 70 | 1014.0 |
| 20260505082034 | 11 | 96 | 1.6 | 6.4 | 0.00 | 0.00 | 0.00 | 69 | 1014.1 |
| 20260505081557 | 11 | 360 | 1.6 | 11.3 | 0.00 | 0.00 | 0.00 | 71 | 1014.1 |
| 20260505081038 | 11 | 0 | 1.6 | 11.3 | 0.00 | 0.00 | 0.00 | 70 | 1014.1 |
| 20260505080539 | 11 | 82 | 1.6 | 11.3 | 0.00 | 0.00 | 0.00 | 70 | 1014.1 |
| 20260505080052 | 11 | 17 | 1.6 | 8.0 | 0.00 | 0.00 | 0.00 | 70 | 1014.1 |
| 20260505075534 | 11 | 60 | 1.6 | 8.0 | 0.00 | 0.00 | 0.00 | 70 | 1014.2 |
| 20260505075034 | 11 | 43 | 0.0 | 8.0 | 0.00 | 0.00 | 0.00 | 70 | 1014.2 |
| 20260505074602 | 11 | 244 | 0.0 | 8.0 | 0.00 | 0.00 | 0.00 | 70 | 1014.1 |
| 20260505074034 | 11 | 24 | 3.2 | 8.0 | 0.00 | 0.00 | 0.00 | 70 | 1014.1 |
| 20260505073535 | 11 | 0 | 1.6 | 8.0 | 0.00 | 0.00 | 0.00 | 70 | 1014.1 |
| 20260505073044 | 11 | 0 | 1.6 | 16.1 | 0.00 | 0.00 | 0.00 | 70 | 1014.2 |
| 20260505072538 | 10 | 35 | 3.2 | 16.1 | 0.00 | 0.00 | 0.00 | 69 | 1014.2 |
| 20260505072036 | 10 | 34 | 3.2 | 12.9 | 0.00 | 0.00 | 0.00 | 70 | 1014.2 |
| 20260505071545 | 10 | 86 | 1.6 | 16.1 | 0.00 | 0.00 | 0.00 | 71 | 1014.3 |
| 20260505071038 | 10 | 0 | 1.6 | 16.1 | 0.00 | 0.00 | 0.00 | 72 | 1014.1 |
| 20260505070538 | 10 | 23 | 1.6 | 12.9 | 0.00 | 0.00 | 0.00 | 72 | 1014.0 |
| 20260505070048 | 10 | 48 | 1.6 | 12.9 | 0.00 | 0.00 | 0.00 | 72 | 1014.1 |
| 20260505065535 | 9 | 46 | 3.2 | 11.3 | 0.00 | 0.00 | 0.00 | 72 | 1014.1 |
| 20260505065034 | 9 | 37 | 3.2 | 17.7 | 0.00 | 0.00 | 0.00 | 72 | 1014.1 |
| 20260505064546 | 9 | 24 | 3.2 | 17.7 | 0.00 | 0.00 | 0.00 | 71 | 1014.1 |
| 20260505064034 | 9 | 352 | 4.8 | 17.7 | 0.00 | 0.00 | 0.00 | 71 | 1014.0 |
| 20260505063534 | 9 | 349 | 3.2 | 17.7 | 0.00 | 0.00 | 0.00 | 71 | 1014.1 |
| 20260505063044 | 9 | 34 | 3.2 | 17.7 | 0.00 | 0.00 | 0.00 | 72 | 1014.0 |
| 20260505062535 | 9 | 5 | 3.2 | 14.5 | 0.00 | 0.00 | 0.00 | 72 | 1014.0 |
| 20260505062035 | 9 | 36 | 3.2 | 14.5 | 0.00 | 0.00 | 0.00 | 72 | 1014.0 |
| 20260505061618 | 9 | 46 | 1.6 | 9.7 | 0.00 | 0.00 | 0.00 | 73 | 1013.9 |
| 20260505061032 | 9 | 67 | 1.6 | 9.7 | 0.00 | 0.00 | 0.00 | 74 | 1014.0 |
| 20260505060538 | 9 | 36 | 1.6 | 6.4 | 0.00 | 0.00 | 0.00 | 75 | 1013.9 |
| 20260505060052 | 9 | 0 | 0.0 | 8.0 | 0.00 | 0.00 | 0.00 | 75 | 1014.0 |
| 20260505055534 | 9 | 339 | 1.6 | 8.0 | 0.00 | 0.00 | 0.00 | 75 | 1013.9 |
| 20260505055038 | 8 | 0 | 1.6 | 6.4 | 0.00 | 0.00 | 0.00 | 76 | 1013.9 |
| 20260505054557 | 9 | 84 | 0.0 | 4.8 | 0.00 | 0.00 | 0.00 | 76 | 1013.9 |
| 20260505054037 | 8 | 0 | 0.0 | 4.8 | 0.00 | 0.00 | 0.00 | 76 | 1013.8 |
| 20260505053534 | 8 | 5 | 0.0 | 8.0 | 0.00 | 0.00 | 0.00 | 76 | 1013.8 |
| 20260505053045 | 8 | 36 | 0.0 | 8.0 | 0.00 | 0.00 | 0.00 | 77 | 1014.0 |
| 20260505052535 | 8 | 0 | 0.0 | 8.0 | 0.00 | 0.00 | 0.00 | 77 | 1014.0 |
| 20260505052034 | 8 | 49 | 3.2 | 8.0 | 0.00 | 0.00 | 0.00 | 78 | 1013.9 |
| 20260505051546 | 8 | 34 | 1.6 | 12.9 | 0.00 | 0.00 | 0.00 | 79 | 1013.8 |
| 20260505051033 | 8 | 0 | 1.6 | 12.9 | 0.00 | 0.00 | 0.00 | 79 | 1014.0 |
| 20260505050533 | 8 | 72 | 3.2 | 12.9 | 0.00 | 0.00 | 0.00 | 80 | 1014.0 |
| 20260505041548 | 8 | 13 | 0.0 | 6.4 | 0.00 | 0.00 | 0.00 | 86 | 1013.9 |
| 20260505041034 | 9 | 0 | 0.0 | 6.4 | 0.00 | 0.00 | 0.00 | 86 | 1013.9 |
| 20260505040533 | 9 | 0 | 0.0 | 12.9 | 0.00 | 0.00 | 0.00 | 86 | 1013.9 |
| 20260505040057 | 9 | 352 | 1.6 | 12.9 | 0.00 | 0.00 | 0.00 | 86 | 1013.8 |
| 20260505035537 | 9 | 36 | 1.6 | 6.4 | 0.00 | 0.00 | 0.00 | 86 | 1013.8 |
| 20260505035034 | 9 | 0 | 1.6 | 6.4 | 0.00 | 0.00 | 0.00 | 87 | 1013.9 |
| 20260505034545 | 9 | 46 | 1.6 | 4.8 | 0.00 | 0.00 | 0.00 | 87 | 1013.9 |
| 20260505034037 | 9 | 25 | 0.0 | 6.4 | 0.00 | 0.00 | 0.00 | 87 | 1013.9 |
| 20260505033535 | 9 | 0 | 0.0 | 6.4 | 0.00 | 0.00 | 0.00 | 87 | 1013.9 |
| 20260505033052 | 9 | 279 | 0.0 | 6.4 | 0.00 | 0.00 | 0.00 | 87 | 1013.9 |
| 20260505032536 | 9 | 0 | 0.0 | 6.4 | 0.00 | 0.00 | 0.00 | 87 | 1013.9 |
| 20260505032039 | 9 | 39 | 0.0 | 6.4 | 0.00 | 0.00 | 0.00 | 87 | 1014.0 |
| 20260505031542 | 9 | 0 | 0.0 | 6.4 | 0.00 | 0.00 | 0.00 | 87 | 1014.0 |
| 20260505031038 | 9 | 352 | 0.0 | 6.4 | 0.00 | 0.00 | 0.00 | 87 | 1014.0 |
| 20260505030539 | 9 | 0 | 0.0 | 16.1 | 0.00 | 0.00 | 0.00 | 87 | 1014.1 |
| 20260505030050 | 9 | 71 | 1.6 | 16.1 | 0.00 | 0.00 | 0.00 | 88 | 1014.1 |
| 20260505025535 | 9 | 72 | 3.2 | 12.9 | 0.00 | 0.00 | 0.00 | 88 | 1013.9 |
| 20260505025033 | 9 | 0 | 4.8 | 12.9 | 0.00 | 0.00 | 0.00 | 88 | 1014.0 |
| 20260505024606 | 9 | 70 | 1.6 | 12.9 | 0.00 | 0.00 | 0.00 | 88 | 1014.0 |
| 20260505024037 | 9 | 0 | 3.2 | 12.9 | 0.00 | 0.00 | 0.00 | 88 | 1014.0 |
| 20260505023537 | 9 | 115 | 1.6 | 8.0 | 0.00 | 0.00 | 0.00 | 88 | 1014.1 |
| 20260505023046 | 9 | 67 | 1.6 | 8.0 | 0.00 | 0.00 | 0.00 | 87 | 1014.0 |
| 20260505022534 | 9 | 78 | 1.6 | 8.0 | 0.00 | 0.00 | 0.00 | 88 | 1014.0 |
| 20260505022035 | 9 | 0 | 1.6 | 6.4 | 0.00 | 0.00 | 0.00 | 87 | 1014.0 |
| 20260505021606 | 9 | 44 | 1.6 | 6.4 | 0.00 | 0.00 | 0.00 | 87 | 1014.0 |
| 20260505021034 | 9 | 67 | 1.6 | 6.4 | 0.00 | 0.00 | 0.00 | 87 | 1014.0 |
| 20260505020534 | 9 | 348 | 1.6 | 9.7 | 0.00 | 0.00 | 0.00 | 87 | 1013.9 |
| 20260505020051 | 9 | 20 | 1.6 | 9.7 | 0.00 | 0.00 | 0.00 | 87 | 1014.0 |
| 20260505015538 | 9 | 32 | 3.2 | 6.4 | 0.00 | 0.00 | 0.00 | 87 | 1014.0 |
| 20260505015037 | 9 | 22 | 0.0 | 4.8 | 0.00 | 0.00 | 0.00 | 87 | 1014.1 |
| 20260505014548 | 9 | 0 | 0.0 | 4.8 | 0.00 | 0.00 | 0.00 | 86 | 1014.1 |
| 20260505014037 | 10 | 0 | 0.0 | 6.4 | 0.00 | 0.00 | 0.00 | 86 | 1014.1 |
| 20260505013538 | 10 | 0 | 0.0 | 6.4 | 0.00 | 0.00 | 0.00 | 86 | 1014.2 |
| 20260505013046 | 10 | 0 | 0.0 | 6.4 | 0.00 | 0.00 | 0.00 | 86 | 1014.2 |
| 20260505012537 | 10 | 0 | 1.6 | 6.4 | 0.00 | 0.00 | 0.00 | 85 | 1014.3 |
| 20260505012034 | 10 | 62 | 1.6 | 9.7 | 0.00 | 0.00 | 0.00 | 85 | 1014.4 |
| 20260505011553 | 10 | 73 | 1.6 | 9.7 | 0.00 | 0.00 | 0.00 | 85 | 1014.3 |
| 20260505011036 | 10 | 26 | 1.6 | 12.9 | 0.00 | 0.00 | 0.00 | 84 | 1014.2 |
| 20260505010534 | 10 | 15 | 1.6 | 12.9 | 0.00 | 0.00 | 0.00 | 84 | 1014.3 |
| 20260505010054 | 10 | 81 | 3.2 | 12.9 | 0.00 | 0.00 | 0.00 | 84 | 1014.3 |
| 20260505005535 | 10 | 47 | 3.2 | 9.7 | 0.00 | 0.00 | 0.00 | 84 | 1014.4 |
| 20260505005035 | 10 | 61 | 1.6 | 11.3 | 0.00 | 0.00 | 0.00 | 84 | 1014.4 |
| 20260505004550 | 10 | 15 | 3.2 | 11.3 | 0.00 | 0.00 | 0.00 | 84 | 1014.4 |
| 20260505004034 | 10 | 59 | 1.6 | 9.7 | 0.00 | 0.00 | 0.00 | 83 | 1014.5 |
| 20260505003535 | 10 | 21 | 3.2 | 9.7 | 0.00 | 0.00 | 0.00 | 83 | 1014.4 |
| 20260505003049 | 10 | 64 | 1.6 | 8.0 | 0.00 | 0.00 | 0.00 | 83 | 1014.5 |
| 20260505002534 | 10 | 343 | 1.6 | 8.0 | 0.00 | 0.00 | 0.00 | 83 | 1014.5 |
| 20260505002037 | 10 | 61 | 3.2 | 8.0 | 0.00 | 0.00 | 0.00 | 83 | 1014.5 |
| 20260505001543 | 10 | 5 | 1.6 | 8.0 | 0.00 | 0.00 | 0.00 | 84 | 1014.6 |
| 20260505001035 | 10 | 32 | 0.0 | 4.8 | 0.00 | 0.00 | 0.00 | 84 | 1014.7 |
| 20260505000535 | 10 | 59 | 0.0 | 4.8 | 0.00 | 0.00 | 0.00 | 84 | 1014.7 |
| 20260505000048 | 10 | 32 | 0.0 | 4.8 | 0.00 | 0.00 | 0.00 | 84 | 1014.7 |
| 20260504235535 | 10 | 54 | 0.0 | 4.8 | 0.00 | 0.00 | 0.00 | 84 | 1014.6 |
| 20260504235038 | 11 | 0 | 0.0 | 4.8 | 0.00 | 0.00 | 0.00 | 84 | 1014.7 |
| 20260504234550 | 11 | 0 | 0.0 | 4.8 | 0.00 | 0.00 | 0.00 | 84 | 1014.7 |
| 20260504234040 | 11 | 0 | 0.0 | 4.8 | 0.00 | 0.00 | 0.00 | 84 | 1014.8 |
| 20260504233536 | 11 | 0 | 0.0 | 4.8 | 0.00 | 0.00 | 0.00 | 84 | 1014.8 |
| 20260504233058 | 11 | 0 | 0.0 | 6.4 | 0.00 | 0.00 | 0.00 | 84 | 1014.7 |
| 20260504232534 | 11 | 42 | 0.0 | 6.4 | 0.00 | 0.00 | 0.00 | 84 | 1014.8 |
| 20260504232034 | 11 | 35 | 1.6 | 8.0 | 0.00 | 0.00 | 0.00 | 84 | 1014.9 |
| 20260504231548 | 11 | 55 | 1.6 | 8.0 | 0.00 | 0.00 | 0.00 | 84 | 1014.8 |
| 20260504231034 | 11 | 352 | 1.6 | 4.8 | 0.00 | 0.00 | 0.00 | 83 | 1014.7 |
| 20260504230537 | 11 | 5 | 0.0 | 4.8 | 0.00 | 0.00 | 0.00 | 83 | 1014.7 |
| 20260504230046 | 11 | 32 | 0.0 | 6.4 | 0.00 | 0.00 | 0.00 | 83 | 1014.7 |
| 20260504225535 | 11 | 42 | 1.6 | 6.4 | 0.00 | 0.03 | 0.00 | 83 | 1014.7 |
| 20260504225035 | 11 | 26 | 1.6 | 8.0 | 0.00 | 0.03 | 0.00 | 83 | 1014.6 |
| 20260504224545 | 11 | 23 | 1.6 | 8.0 | 0.00 | 0.03 | 0.00 | 83 | 1014.7 |
| 20260504224036 | 11 | 36 | 1.6 | 6.4 | 0.00 | 0.03 | 0.00 | 83 | 1014.7 |
| 20260504223535 | 11 | 347 | 1.6 | 8.0 | 0.00 | 0.03 | 0.00 | 82 | 1014.7 |
| 20260504223054 | 11 | 348 | 0.0 | 8.0 | 0.00 | 0.03 | 0.00 | 82 | 1014.7 |
| 20260504222534 | 11 | 37 | 1.6 | 8.0 | 0.00 | 0.03 | 0.00 | 83 | 1014.7 |
| 20260504222034 | 11 | 47 | 3.2 | 8.0 | 0.00 | 0.03 | 0.00 | 83 | 1014.8 |
| 20260504221556 | 11 | 32 | 3.2 | 8.0 | 0.00 | 0.03 | 0.00 | 83 | 1014.8 |
| 20260504221036 | 11 | 16 | 1.6 | 6.4 | 0.00 | 0.03 | 0.00 | 83 | 1014.8 |
| 20260504220534 | 11 | 11 | 0.0 | 4.8 | 0.00 | 0.03 | 0.00 | 83 | 1014.9 |
| 20260504220117 | 11 | 0 | 0.0 | 4.8 | 0.00 | 0.03 | 0.00 | 82 | 1014.9 |
| 20260504215534 | 11 | 352 | 0.0 | 3.2 | 0.00 | 0.03 | 0.00 | 82 | 1014.7 |
| 20260504215036 | 11 | 0 | 0.0 | 4.8 | 0.00 | 0.03 | 0.00 | 82 | 1014.7 |
| 20260504214547 | 11 | 55 | 1.6 | 4.8 | 0.00 | 0.03 | 0.00 | 82 | 1014.7 |
| 20260504214035 | 11 | 352 | 1.6 | 3.2 | 0.00 | 0.03 | 0.00 | 81 | 1014.8 |
| 20260504213534 | 11 | 0 | 0.0 | 4.8 | 0.00 | 0.03 | 0.00 | 81 | 1014.8 |
| 20260504213050 | 11 | 40 | 0.0 | 4.8 | 0.00 | 0.03 | 0.00 | 81 | 1014.9 |
| 20260504212534 | 11 | 0 | 0.0 | 3.2 | 0.00 | 0.03 | 0.00 | 81 | 1014.9 |
| 20260504212037 | 11 | 0 | 0.0 | 3.2 | 0.00 | 0.03 | 0.00 | 81 | 1014.9 |
| 20260504211545 | 11 | 0 | 0.0 | 4.8 | 0.00 | 0.03 | 0.00 | 81 | 1014.9 |
| 20260504211034 | 11 | 0 | 0.0 | 4.8 | 0.00 | 0.03 | 0.00 | 80 | 1014.9 |
| 20260504210534 | 11 | 46 | 0.0 | 4.8 | 0.00 | 0.03 | 0.00 | 80 | 1014.8 |
| 20260504210048 | 11 | 21 | 0.0 | 4.8 | 0.00 | 0.03 | 0.00 | 80 | 1014.9 |
| 20260504205534 | 11 | 0 | 0.0 | 4.8 | 0.00 | 0.03 | 0.00 | 79 | 1014.9 |
| 20260504205034 | 11 | 350 | 0.0 | 4.8 | 0.00 | 0.03 | 0.00 | 79 | 1014.9 |
| 20260504204600 | 11 | 0 | 0.0 | 4.8 | 0.00 | 0.03 | 0.00 | 79 | 1014.9 |
| 20260504204035 | 12 | 71 | 0.0 | 3.2 | 0.00 | 0.03 | 0.00 | 79 | 1014.9 |
| 20260504203538 | 12 | 50 | 0.0 | 3.2 | 0.00 | 0.03 | 0.00 | 78 | 1014.9 |
| 20260504203042 | 12 | 28 | 0.0 | 3.2 | 0.00 | 0.03 | 0.00 | 78 | 1014.8 |
| 20260504202536 | 12 | 67 | 0.0 | 4.8 | 0.00 | 0.03 | 0.00 | 78 | 1014.8 |
| 20260504202037 | 12 | 0 | 1.6 | 4.8 | 0.00 | 0.03 | 0.00 | 78 | 1014.8 |
| 20260504201548 | 12 | 0 | 0.0 | 3.2 | 0.00 | 0.03 | 0.00 | 78 | 1014.8 |
| 20260504201037 | 12 | 61 | 0.0 | 3.2 | 0.00 | 0.03 | 0.00 | 78 | 1014.6 |
| 20260504200539 | 12 | 25 | 0.0 | 6.4 | 0.00 | 0.03 | 0.00 | 78 | 1014.6 |
| 20260504200047 | 12 | 0 | 0.0 | 6.4 | 0.00 | 0.03 | 0.00 | 77 | 1014.5 |
| 20260504195534 | 12 | 45 | 0.0 | 4.8 | 0.00 | 0.03 | 0.00 | 77 | 1014.5 |
| 20260504195035 | 12 | 0 | 0.0 | 4.8 | 0.00 | 0.03 | 0.00 | 77 | 1014.4 |
| 20260504194553 | 12 | 0 | 0.0 | 8.0 | 0.00 | 0.03 | 0.00 | 77 | 1014.4 |
| 20260504194034 | 12 | 29 | 1.6 | 8.0 | 0.00 | 0.03 | 0.00 | 77 | 1014.5 |
| 20260504193535 | 12 | 0 | 0.0 | 8.0 | 0.00 | 0.03 | 0.00 | 77 | 1014.4 |
| 20260504193054 | 12 | 0 | 0.0 | 3.2 | 0.00 | 0.03 | 0.00 | 77 | 1014.4 |
| 20260504192535 | 12 | 0 | 0.0 | 4.8 | 0.00 | 0.03 | 0.00 | 76 | 1014.4 |
| 20260504192034 | 13 | 0 | 0.0 | 4.8 | 0.00 | 0.03 | 0.00 | 76 | 1014.4 |
| 20260504191548 | 13 | 0 | 0.0 | 4.8 | 0.00 | 0.03 | 0.00 | 75 | 1014.3 |
| 20260504191036 | 13 | 0 | 0.0 | 4.8 | 0.00 | 0.03 | 0.00 | 75 | 1014.2 |